Location: Archemont
(49.1579°N, 1.7598°E)
Time: 13:14:29
(UTC+00:00)

Cosmos 44 Rocket - Pass Details

Date: 03 February 2023
Orbit: 646 x 741 km, 65.1° (Epoch: 26 March)

Event Time Altitude Azimuth Distance (km) Brightness Sun altitude
Rises 19:44:11 0° 220° (SW) 2,957 7.0 -28.2°
Reaches altitude 10° 19:46:27 10° 222° (SW) 2,058 6.1 -28.6°
Enters shadow 19:49:20 38° 227° (SW) 1,003 4.3 -29.0°
